• In Austria
  • List of Countries
  • For 7 days
  • Water Temperature
  • Satellite Maps
  • Weather Map
  • News
  • Weather Widgets
  • user-avatar
    Login

    Hourly Weather Escaldes-Engordany

    Today, 18 December, Monday

    Time Temperature Precipitation Wind Pressure Humidity
    00:00 -4°C° 0 mm 2 mps 644 mmHg 80%
    01:00 -4°C° 0 mm 2 mps 644 mmHg 81%
    02:00 -4°C° 0 mm 2 mps 643 mmHg 81%
    03:00 -5°C° 0 mm 3 mps 643 mmHg 82%
    04:00 -5°C° 0 mm 3 mps 643 mmHg 81%
    05:00 -5°C° 0 mm 3 mps 643 mmHg 81%
    06:00 -5°C° 0 mm 3 mps 643 mmHg 81%
    07:00 -4°C° 0 mm 3 mps 643 mmHg 78%
    08:00 -2°C° 0 mm 2 mps 643 mmHg 76%
    09:00 -1°C° 0 mm 2 mps 644 mmHg 73%
    10:00 +1°C° 0.2 mm 2 mps 643 mmHg 73%
    11:00 +1°C° 0.2 mm 3 mps 643 mmHg 73%
    12:00 +2°C° 0.2 mm 3 mps 643 mmHg 73%
    13:00 +2°C° 0.7 mm 3 mps 642 mmHg 75%
    14:00 +2°C° 0.7 mm 3 mps 641 mmHg 78%
    15:00 +1°C° 0.7 mm 3 mps 641 mmHg 81%
    16:00 +1°C° 1.2 mm 3 mps 640 mmHg 84%
    17:00 +1°C° 1.2 mm 3 mps 640 mmHg 88%
    18:00 -1°C° 1.2 mm 4 mps 640 mmHg 91%
    19:00 -1°C° 0.5 mm 4 mps 640 mmHg 91%
    20:00 0°C° 0.5 mm 3 mps 640 mmHg 91%
    21:00 -1°C° 0.5 mm 3 mps 641 mmHg 91%
    22:00 -2°C° 0.1 mm 3 mps 641 mmHg 91%
    23:00 -2°C° 0.1 mm 3 mps 641 mmHg 91%

    Tomorrow, 19 December, Tuesday

    Time Temperature Precipitation Wind Pressure Humidity
    00:00 -4°C° 0.1 mm 3 mps 641 mmHg 91%
    01:00 -5°C° 0 mm 3 mps 641 mmHg 90%
    02:00 -5°C° 0 mm 3 mps 642 mmHg 90%
    03:00 -6°C° 0 mm 3 mps 642 mmHg 90%
    04:00 -7°C° 0 mm 3 mps 642 mmHg 88%
    05:00 -7°C° 0 mm 3 mps 642 mmHg 87%
    06:00 -7°C° 0 mm 3 mps 642 mmHg 85%
    07:00 -7°C° 0 mm 3 mps 643 mmHg 82%
    08:00 -5°C° 0 mm 2 mps 644 mmHg 78%
    09:00 -4°C° 0 mm 2 mps 645 mmHg 74%
    10:00 -2°C° 0 mm 2 mps 646 mmHg 70%
    11:00 +1°C° 0 mm 2 mps 646 mmHg 66%
    12:00 +2°C° 0 mm 2 mps 647 mmHg 63%
    13:00 +2°C° 0 mm 2 mps 646 mmHg 65%
    14:00 +1°C° 0 mm 2 mps 646 mmHg 68%
    15:00 +1°C° 0 mm 2 mps 646 mmHg 71%
    16:00 -2°C° 0 mm 2 mps 646 mmHg 76%
    17:00 -4°C° 0 mm 2 mps 645 mmHg 81%
    18:00 -5°C° 0 mm 2 mps 645 mmHg 87%
    19:00 -6°C° 0 mm 2 mps 645 mmHg 85%
    20:00 -6°C° 0 mm 2 mps 645 mmHg 84%
    21:00 -6°C° 0 mm 2 mps 646 mmHg 83%
    22:00 -6°C° 0 mm 2 mps 646 mmHg 81%
    23:00 -6°C° 0 mm 2 mps 645 mmHg 78%

    Day after tomorrow, 20 December, Wednesday

    Time Temperature Precipitation Wind Pressure Humidity
    00:00 -6°C° 0 mm 2 mps 645 mmHg 76%
    01:00 -6°C° 0 mm 2 mps 645 mmHg 75%
    02:00 -5°C° 0 mm 2 mps 645 mmHg 74%
    03:00 -5°C° 0 mm 2 mps 645 mmHg 72%
    04:00 -5°C° 0 mm 2 mps 645 mmHg 72%
    05:00 -5°C° 0 mm 2 mps 645 mmHg 72%
    06:00 -5°C° 0 mm 2 mps 645 mmHg 72%
    07:00 -4°C° 0 mm 2 mps 646 mmHg 72%
    08:00 -2°C° 0 mm 2 mps 646 mmHg 71%
    09:00 -1°C° 0 mm 2 mps 647 mmHg 71%
    10:00 0°C° 0 mm 3 mps 647 mmHg 71%
    11:00 +2°C° 0 mm 3 mps 647 mmHg 70%
    12:00 +3°C° 0 mm 3 mps 647 mmHg 70%
    13:00 +2°C° 0 mm 3 mps 647 mmHg 72%
    14:00 +2°C° 0 mm 3 mps 647 mmHg 73%
    15:00 +2°C° 0 mm 3 mps 646 mmHg 74%
    16:00 +1°C° 0 mm 3 mps 646 mmHg 78%
    17:00 -1°C° 0 mm 3 mps 646 mmHg 82%
    18:00 -2°C° 0 mm 3 mps 646 mmHg 86%
    19:00 -2°C° 0 mm 3 mps 646 mmHg 85%
    20:00 -2°C° 0 mm 3 mps 646 mmHg 85%
    21:00 -2°C° 0 mm 3 mps 647 mmHg 85%
    22:00 -2°C° 0 mm 3 mps 647 mmHg 85%
    23:00 -2°C° 0 mm 3 mps 647 mmHg 84%

    21 December, Thursday

    Time Temperature Precipitation Wind Pressure Humidity
    00:00 -2°C° 0 mm 3 mps 647 mmHg 84%
    01:00 -2°C° 0 mm 2 mps 647 mmHg 84%
    02:00 -2°C° 0 mm 2 mps 647 mmHg 85%
    03:00 -2°C° 0 mm 2 mps 647 mmHg 85%
    04:00 -2°C° 0 mm 2 mps 647 mmHg 85%
    05:00 -2°C° 0 mm 2 mps 647 mmHg 85%
    06:00 -3°C° 0 mm 2 mps 647 mmHg 86%
    07:00 -2°C° 0 mm 2 mps 648 mmHg 83%
    08:00 -1°C° 0 mm 2 mps 648 mmHg 80%
    09:00 +1°C° 0 mm 2 mps 649 mmHg 77%
    10:00 +2°C° 0 mm 2 mps 649 mmHg 75%
    11:00 +4°C° 0 mm 2 mps 650 mmHg 74%
    12:00 +5°C° 0 mm 2 mps 650 mmHg 72%
    13:00 +5°C° 0 mm 2 mps 650 mmHg 73%
    14:00 +4°C° 0 mm 2 mps 650 mmHg 75%
    15:00 +4°C° 0 mm 2 mps 649 mmHg 76%
    16:00 +3°C° 0 mm 2 mps 649 mmHg 79%
    17:00 +1°C° 0 mm 2 mps 649 mmHg 82%
    18:00 -2°C° 0 mm 2 mps 649 mmHg 86%
    19:00 -2°C° 0 mm 2 mps 649 mmHg 84%
    20:00 -2°C° 0 mm 2 mps 649 mmHg 83%
    21:00 -2°C° 0 mm 2 mps 649 mmHg 82%
    22:00 -1°C° 0 mm 2 mps 649 mmHg 81%
    23:00 -1°C° 0 mm 2 mps 649 mmHg 81%

    22 December, Friday

    Time Temperature Precipitation Wind Pressure Humidity
    00:00 -1°C° 0 mm 2 mps 649 mmHg 80%
    01:00 -1°C° 0 mm 2 mps 649 mmHg 81%
    02:00 -1°C° 0 mm 2 mps 648 mmHg 81%
    03:00 -1°C° 0 mm 2 mps 648 mmHg 82%
    04:00 -1°C° 0 mm 2 mps 648 mmHg 82%
    05:00 -1°C° 0 mm 2 mps 648 mmHg 83%
    06:00 -1°C° 0 mm 2 mps 648 mmHg 83%
    07:00 +1°C° 0 mm 2 mps 648 mmHg 81%
    08:00 +1°C° 0 mm 2 mps 649 mmHg 80%
    09:00 +2°C° 0 mm 2 mps 649 mmHg 78%
    10:00 +3°C° 0 mm 2 mps 649 mmHg 77%
    11:00 +4°C° 0 mm 2 mps 649 mmHg 75%
    12:00 +6°C° 0 mm 2 mps 650 mmHg 74%
    13:00 +5°C° 0 mm 2 mps 649 mmHg 76%
    14:00 +5°C° 0 mm 2 mps 649 mmHg 77%
    15:00 +4°C° 0 mm 2 mps 648 mmHg 79%
    16:00 +3°C° 0 mm 2 mps 648 mmHg 81%
    17:00 +2°C° 0 mm 2 mps 648 mmHg 84%
    18:00 +1°C° 0 mm 2 mps 648 mmHg 87%
    19:00 +1°C° 0 mm 2 mps 648 mmHg 86%
    20:00 -1°C° 0 mm 2 mps 648 mmHg 85%
    21:00 -1°C° 0 mm 2 mps 648 mmHg 84%
    22:00 -1°C° 0 mm 2 mps 648 mmHg 83%
    23:00 -1°C° 0 mm 2 mps 647 mmHg 83%

    23 December, Saturday

    Time Temperature Precipitation Wind Pressure Humidity
    00:00 -1°C° 0 mm 2 mps 647 mmHg 82%
    01:00 -1°C° 0 mm 2 mps 647 mmHg 81%
    02:00 -2°C° 0 mm 2 mps 647 mmHg 81%
    03:00 -2°C° 0 mm 2 mps 647 mmHg 80%
    04:00 -2°C° 0 mm 2 mps 646 mmHg 80%
    05:00 -2°C° 0 mm 2 mps 646 mmHg 81%
    06:00 -2°C° 0 mm 2 mps 646 mmHg 82%
    07:00 -1°C° 0 mm 2 mps 647 mmHg 80%
    08:00 -1°C° 0 mm 2 mps 647 mmHg 78%
    09:00 +1°C° 0 mm 2 mps 647 mmHg 76%
    10:00 +2°C° 0 mm 2 mps 647 mmHg 73%
    11:00 +3°C° 0 mm 2 mps 648 mmHg 70%
    12:00 +5°C° 0 mm 2 mps 648 mmHg 66%
    13:00 +4°C° 0 mm 2 mps 647 mmHg 67%
    14:00 +4°C° 0 mm 2 mps 647 mmHg 69%
    15:00 +4°C° 0 mm 2 mps 646 mmHg 70%
    16:00 +2°C° 0 mm 2 mps 646 mmHg 73%
    17:00 +1°C° 0 mm 2 mps 645 mmHg 77%
    18:00 -2°C° 0 mm 2 mps 645 mmHg 80%
    19:00 -2°C° 0 mm 2 mps 645 mmHg 77%
    20:00 -2°C° 0 mm 2 mps 645 mmHg 74%
    21:00 -3°C° 0 mm 2 mps 645 mmHg 71%
    22:00 -3°C° 0 mm 2 mps 645 mmHg 68%
    23:00 -3°C° 0 mm 2 mps 644 mmHg 65%
    Show more